[[{"header":{"parameterUnit":"m.s-1","parameterCategory":1,"la1":30.2991,"la2":30.254,"lo1":-89.0895,"lo2":-89.0444,"dy":0.0017,"dx":0.0017,"nx":28,"ny":28,"refTime":"2024-07-08T09:00:00:Z","depth":0,"parameterNumber":2,"parameterNumberName":"U-component_of_WINDS"},"data":[0,0,0,0,0,0,0,0,0,0,0,0,0,0,0,0,0,0,0,0,0,0,0,0,0,0,0,0,0,0,0,0,0,0,0,0,0,0,0,0,0,0,0,0,0,0,0,0,0,0,0,0,0,0,0,0,0,0,-1.5968,-1.5969,0,-1.6025,-1.6026,-1.6027,-1.6029,-1.6028,-1.6027,-1.6027,-1.6086,-1.6088,-1.609,0,0,0,0,0,0,0,0,0,0,0,0,0,-1.586,-1.5862,-1.5968,-1.5969,-1.5969,-1.6025,-1.6026,-1.6027,-1.6029,-1.6028,-1.6027,-1.6026,-1.6085,-1.6088,-1.609,0,0,0,0,0,0,0,0,0,0,0,0,0,-1.5911,-1.5862,-1.5968,-1.5977,-1.5978,-1.6025,-1.6026,-1.6027,-1.6029,-1.6028,-1.6027,-1.6026,-1.6084,-1.6087,-1.6091,-1.6132,0,0,-1.6101,-1.6102,0,0,0,0,0,0,0,0,-1.5908,-1.5915,-1.5975,-1.5977,-1.5978,-1.6019,-1.601,-1.6062,-1.6029,-1.601,-1.6027,-1.6026,-1.6064,-1.6069,-1.6082,-1.6135,-1.6137,-1.6101,-1.6103,-1.6104,-1.6105,0,0,0,0,0,0,0,-1.5904,-1.5912,-1.5991,-1.5976,-1.5978,-1.5978,-1.5985,-1.602,-1.6042,-1.6012,-1.6012,-1.6019,-1.6065,-1.6079,-1.6084,-1.6138,-1.6101,-1.6104,-1.6106,-1.6107,-1.6227,-1.6228,0,0,0,0,0,0,-1.5899,-1.5909,-1.5989,-1.5992,-1.594,-1.5981,-1.5988,-1.6007,-1.6042,-1.6046,-1.6019,-1.6018,-1.6074,-1.608,-1.6086,-1.6136,-1.6104,-1.6107,-1.6109,-1.6225,-1.6227,-1.6228,0,0,0,0,0,0,-1.5897,-1.5906,-1.5986,-1.5951,-1.5961,-1.5984,-1.6005,-1.6009,-1.6023,-1.6048,-1.6052,-1.603,-1.6073,-1.6081,-1.612,-1.6138,-1.6109,-1.6112,-1.6224,-1.6226,-1.6228,-1.6237,0,0,0,0,0,0,-1.5894,-1.5905,-1.5921,-1.5951,-1.5963,-1.602,-1.6006,-1.601,-1.6028,-1.6028,-1.6058,-1.6063,-1.6073,-1.6115,-1.6124,-1.6142,-1.6115,-1.6223,-1.6225,-1.6227,-1.6236,-1.6239,-1.6242,0,0,0,0,0,-1.589,-1.5922,-1.5922,-1.5932,-1.5984,-1.6021,-1.6028,-1.6039,-1.603,-1.6046,-1.6062,-1.6062,-1.6135,-1.6119,-1.6129,-1.6149,-1.6222,-1.6224,-1.6227,-1.6234,-1.6238,-1.6242,0,0,0,0,0,0,-1.5893,-1.5926,-1.5927,-1.5969,-1.5992,-1.6021,-1.6042,-1.6044,-1.607,-1.6069,-1.6082,-1.6089,-1.6127,-1.6142,-1.6124,-1.619,-1.6177,-1.6182,-1.6179,-1.6184,-1.6187,-1.6183,-1.6117,0,0,0,0,0,-1.5899,-1.5927,-1.5954,-1.5989,-1.6,-1.6019,-1.6036,-1.6043,-1.6068,-1.6077,-1.6096,-1.612,-1.6149,-1.6167,-1.6194,-1.6238,-1.6244,-1.6256,-1.6259,-1.6262,-1.6266,-1.629,-1.6295,-1.6237,-1.6237,-1.6237,0,0,-1.5911,-1.5933,-1.5949,-1.599,-1.6009,-1.6037,-1.6028,-1.6058,-1.6079,-1.6082,-1.612,-1.6135,-1.6162,-1.6204,-1.6223,-1.6217,-1.6283,-1.6265,-1.6267,-1.627,-1.6293,-1.6298,-1.6303,-1.6239,-1.6238,-1.6238,0,0,-1.5948,-1.5967,-1.5998,-1.6017,-1.6045,-1.6058,-1.6065,-1.6094,-1.6104,-1.6142,-1.6145,-1.617,-1.6219,-1.6238,-1.6254,-1.6298,-1.6299,-1.6307,-1.6325,-1.6348,-1.6352,-1.6356,-1.6372,-1.6377,-1.6311,-1.6311,-1.6311,0,-1.596,-1.6003,-1.6014,-1.6045,-1.6062,-1.6066,-1.6097,-1.6115,-1.6151,-1.6163,-1.6156,-1.6217,-1.6236,-1.6282,-1.6292,-1.6306,-1.6314,-1.6303,-1.6351,-1.6355,-1.6359,-1.6374,-1.638,-1.6311,-1.6311,-1.6311,-1.6311,0,-1.6016,-1.6045,-1.6067,-1.6102,-1.6122,-1.6153,-1.6169,-1.6188,-1.6193,-1.6206,-1.6245,-1.6267,-1.6299,-1.6311,-1.6316,-1.6357,-1.6353,-1.6348,-1.6335,-1.6365,-1.6379,-1.6385,-1.6312,-1.6312,-1.6312,-1.6312,0,0,-1.6057,-1.6097,-1.6104,-1.612,-1.6151,-1.6175,-1.6206,-1.6237,-1.6253,-1.6277,-1.6304,-1.6345,-1.634,-1.6359,-1.6366,-1.6386,-1.6419,-1.6379,-1.638,-1.6386,-1.6466,-1.6469,-1.6476,-1.642,-1.6421,-1.6422,-1.6464,0,-1.6097,-1.6152,-1.6163,-1.6211,-1.6238,-1.6242,-1.6269,-1.6291,-1.6303,-1.6329,-1.6343,-1.6372,-1.6364,-1.6375,-1.6395,-1.6411,-1.6435,-1.6408,-1.6444,-1.6445,-1.6437,-1.6483,-1.6487,-1.6525,-1.6469,-1.647,-1.6471,0,-1.6152,-1.6177,-1.6228,-1.6255,-1.6267,-1.6291,-1.632,-1.6344,-1.6369,-1.6377,-1.6397,-1.6402,-1.6435,-1.642,-1.6464,-1.6446,-1.6461,-1.6471,-1.6473,-1.6477,-1.646,-1.6488,-1.6538,-1.6544,-1.648,-1.6479,-1.6478,0,-1.6177,-1.6224,-1.626,-1.6273,-1.6306,-1.6323,-1.6337,-1.6361,-1.6379,-1.6404,-1.6416,-1.6445,-1.6461,-1.6483,-1.6496,-1.6484,-1.6539,-1.6526,-1.6547,-1.6547,-1.6558,-1.6558,-1.6611,-1.6568,-1.6568,-1.6568,-1.6568,0,-1.6221,-1.6251,-1.6272,-1.6294,-1.6328,-1.634,-1.6374,-1.6388,-1.6409,-1.6434,-1.6439,-1.6462,-1.6478,-1.6503,-1.6513,-1.6548,-1.6556,-1.6563,-1.6565,-1.6563,-1.6562,-1.6573,-1.657,-1.657,-1.6569,-1.6569,-1.6569,0,-1.6255,-1.6269,-1.6309,-1.6337,-1.6344,-1.6368,-1.6392,-1.6414,-1.6426,-1.6458,-1.6466,-1.6486,-1.6516,-1.6531,-1.6568,-1.6575,-1.6615,-1.6615,-1.6606,-1.6607,-1.6627,-1.6625,-1.669,-1.6699,-1.665,-1.665,-1.6651,0,-1.6282,-1.6306,-1.6335,-1.6352,-1.6367,-1.6395,-1.6413,-1.6425,-1.6444,-1.6474,-1.6492,-1.6522,-1.6547,-1.6595,-1.6613,-1.6642,-1.6643,-1.6664,-1.6648,-1.6644,-1.6644,-1.6642,-1.6644,-1.6667,-1.6667,-1.6668,-1.6668,0,-1.6329,-1.6335,-1.6361,-1.6389,-1.6411,-1.6434,-1.6456,-1.647,-1.6486,-1.6507,-1.6538,-1.6557,-1.6595,-1.6625,-1.6655,-1.667,-1.6672,-1.6673,-1.6679,-1.6677,-1.6671,-1.6675,-1.6614,-1.6672,-1.6671,-1.6671,-1.6671,-1.6671,-1.6361,-1.6382,-1.6406,-1.6434,-1.6453,-1.6473,-1.6495,-1.651,-1.6536,-1.6568,-1.6573,-1.6606,-1.663,-1.667,-1.6686,-1.6712,-1.6707,-1.6716,-1.6719,-1.6721,-1.6722,-1.6667,-1.6717,-1.6717,-1.6717,-1.6717,-1.6717,0,-1.6408,-1.6424,-1.645,-1.6481,-1.6503,-1.6503,-1.6527,-1.6546,-1.6575,-1.6597,-1.6621,-1.6656,-1.6685,-1.6705,-1.6735,-1.6751,-1.6753,-1.6759,-1.6758,-1.6761,-1.6724,-1.6716,-1.6757,-1.6757,-1.6757,-1.6757,-1.6757,-1.6757,-1.6436,-1.6471,-1.6479,-1.6524,-1.6539,-1.6571,-1.6585,-1.6604,-1.6622,-1.6661,-1.6685,-1.6697,-1.6718,-1.6749,-1.6776,-1.6781,-1.6791,-1.6797,-1.6802,-1.6768,-1.6764,-1.676,-1.6752,-1.6799,-1.6799,-1.6837,-1.6837,-1.6837]},{"header":{"parameterUnit":"m.s-1","parameterCategory":1,"la1":30.2991,"la2":30.254,"lo1":-89.0895,"lo2":-89.0444,"dy":0.0017,"dx":0.0017,"nx":28,"ny":28,"refTime":"2024-07-08T09:00:00:Z","depth":0,"parameterNumber":3,"parameterNumberName":"V-component_of_WINDS"},"data":[0,0,0,0,0,0,0,0,0,0,0,0,0,0,0,0,0,0,0,0,0,0,0,0,0,0,0,0,0,0,0,0,0,0,0,0,0,0,0,0,0,0,0,0,0,0,0,0,0,0,0,0,0,0,0,0,0,0,4.6463,4.6463,0,4.6465,4.6465,4.6465,4.6371,4.6369,4.6366,4.6364,4.6366,4.6369,4.6371,0,0,0,0,0,0,0,0,0,0,0,0,0,4.6377,4.6379,4.6463,4.6463,4.6463,4.6465,4.6465,4.6465,4.6372,4.6369,4.6366,4.6363,4.6366,4.6368,4.6371,0,0,0,0,0,0,0,0,0,0,0,0,0,4.64,4.638,4.6463,4.6417,4.6413,4.6465,4.6465,4.6465,4.6372,4.6369,4.6365,4.6362,4.6365,4.6368,4.6372,4.6468,0,0,4.6382,4.6384,0,0,0,0,0,0,0,0,4.6399,4.6404,4.6423,4.642,4.6415,4.6414,4.6435,4.6466,4.6373,4.6388,4.6364,4.636,4.6385,4.6387,4.6395,4.6468,4.6468,4.6383,4.6385,4.6386,4.6387,0,0,0,0,0,0,0,4.6398,4.6403,4.6464,4.6424,4.6419,4.6395,4.6395,4.6441,4.6407,4.6386,4.6379,4.6381,4.6382,4.6392,4.6395,4.6468,4.6383,4.6386,4.6388,4.6389,4.6618,4.6622,0,0,0,0,0,0,4.6402,4.6402,4.6463,4.6464,4.6398,4.64,4.6399,4.6418,4.6407,4.6401,4.6384,4.6377,4.6388,4.6391,4.6394,4.6505,4.6386,4.639,4.6392,4.6614,4.6619,4.6623,0,0,0,0,0,0,4.6401,4.6409,4.6463,4.6431,4.6436,4.6405,4.6428,4.642,4.643,4.6405,4.6398,4.64,4.6385,4.6389,4.645,4.6504,4.6391,4.6395,4.661,4.6616,4.6621,4.6728,0,0,0,0,0,0,4.6399,4.6409,4.6446,4.6433,4.6438,4.652,4.6431,4.6423,4.6436,4.6427,4.6419,4.6414,4.6383,4.6445,4.6454,4.6507,4.6397,4.6605,4.6612,4.6619,4.6719,4.6737,4.6752,0,0,0,0,0,4.6396,4.6476,4.6448,4.6456,4.6484,4.6523,4.6526,4.6489,4.6441,4.6477,4.6461,4.6414,4.6497,4.6452,4.6461,4.6516,4.6601,4.661,4.6619,4.6712,4.6733,4.6751,0,0,0,0,0,0,4.6497,4.6474,4.6442,4.652,4.6524,4.6507,4.6552,4.6512,4.653,4.652,4.6473,4.6472,4.6539,4.6534,4.6484,4.6607,4.654,4.6551,4.6609,4.6628,4.6644,4.6644,4.64,0,0,0,0,0,4.6528,4.6562,4.654,4.6611,4.6614,4.6583,4.6599,4.6569,4.6571,4.6573,4.6561,4.6565,4.6591,4.661,4.6633,4.6718,4.6714,4.676,4.6777,4.679,4.68,4.6843,4.6862,4.6652,4.6652,4.6652,0,0,4.6593,4.6585,4.6609,4.6631,4.663,4.6666,4.6585,4.6627,4.6652,4.6579,4.6635,4.6626,4.6627,4.67,4.6732,4.6698,4.6857,4.6801,4.6812,4.6814,4.6854,4.6874,4.6891,4.6658,4.6657,4.6656,0,0,4.6729,4.6727,4.6785,4.6786,4.6786,4.6764,4.6778,4.6766,4.6758,4.6813,4.6758,4.6788,4.6836,4.6838,4.6845,4.6981,4.6938,4.699,4.7074,4.7116,4.7133,4.7147,4.7194,4.7211,4.7,4.7,4.7,0,4.681,4.6861,4.682,4.6864,4.6875,4.681,4.6867,4.687,4.6878,4.6887,4.6848,4.6905,4.6901,4.6973,4.7006,4.7015,4.7028,4.699,4.7134,4.7148,4.716,4.7204,4.7222,4.7006,4.7006,4.7005,4.7005,0,4.696,4.6996,4.7043,4.7051,4.7067,4.7118,4.7083,4.7105,4.7074,4.7056,4.7112,4.7105,4.7125,4.714,4.7111,4.7208,4.7186,4.7142,4.7073,4.7187,4.7228,4.7244,4.7015,4.7013,4.7011,4.701,0,0,4.716,4.7143,4.7161,4.7163,4.7157,4.7184,4.7232,4.7251,4.7269,4.7277,4.7315,4.7356,4.7314,4.7322,4.7293,4.733,4.7436,4.728,4.728,4.7308,4.754,4.7573,4.7593,4.7408,4.7411,4.7413,4.7539,0,4.729,4.737,4.7333,4.7417,4.7449,4.7387,4.7428,4.7429,4.7414,4.7438,4.7421,4.745,4.7394,4.7398,4.7433,4.7416,4.7482,4.7406,4.7442,4.7443,4.7442,4.7614,4.7649,4.7769,4.7555,4.7558,4.756,0,4.7454,4.7467,4.7553,4.754,4.7552,4.759,4.7603,4.7628,4.7627,4.7613,4.7622,4.7583,4.7628,4.7561,4.7622,4.7572,4.7584,4.7578,4.7581,4.7582,4.7508,4.7619,4.7806,4.7824,4.7585,4.7583,4.7581,0,4.7589,4.7628,4.7684,4.7688,4.7675,4.7702,4.7698,4.7693,4.7707,4.7719,4.7726,4.7744,4.7753,4.7767,4.7734,4.7689,4.7799,4.7729,4.7788,4.7789,4.7813,4.7812,4.8004,4.7824,4.7823,4.7823,4.7823,0,4.7738,4.7793,4.7744,4.7779,4.7838,4.7795,4.7855,4.7844,4.7841,4.7871,4.782,4.785,4.7805,4.783,4.7805,4.7858,4.7863,4.7853,4.7845,4.7856,4.7858,4.7863,4.7853,4.7828,4.7827,4.7826,4.7825,0,4.7899,4.7868,4.7925,4.7907,4.7904,4.7949,4.7933,4.7964,4.7944,4.7984,4.7991,4.796,4.7988,4.7956,4.7981,4.7964,4.8036,4.8017,4.8036,4.803,4.8089,4.8084,4.8291,4.8315,4.8121,4.8123,4.8124,0,4.7995,4.8036,4.8021,4.8038,4.8036,4.8064,4.8077,4.8036,4.8051,4.8052,4.8083,4.8106,4.8121,4.8168,4.8148,4.8167,4.8147,4.8218,4.8149,4.8159,4.8146,4.8143,4.8147,4.8232,4.8234,4.8236,4.8237,0,4.8169,4.8152,4.8171,4.8186,4.8202,4.8212,4.8218,4.8235,4.8191,4.8211,4.8238,4.825,4.8275,4.8298,4.8311,4.8306,4.8265,4.8259,4.8273,4.8285,4.8294,4.8288,4.8072,4.8255,4.8253,4.8252,4.8251,4.825,4.8299,4.8332,4.8326,4.835,4.8349,4.8356,4.8383,4.8366,4.8388,4.8404,4.8379,4.8412,4.8409,4.8421,4.8421,4.8446,4.8416,4.8437,4.8442,4.8448,4.8456,4.8291,4.8449,4.8448,4.8448,4.8447,4.8447,0,4.8469,4.8462,4.8484,4.8493,4.8511,4.847,4.8474,4.8492,4.8521,4.8522,4.8538,4.8568,4.859,4.8571,4.8589,4.8612,4.8594,4.8618,4.8616,4.8615,4.8483,4.8468,4.8633,4.8633,4.8633,4.8633,4.8633,4.8633,4.856,4.8612,4.8593,4.8644,4.8637,4.8668,4.8673,4.8678,4.8678,4.8714,4.8731,4.8718,4.8711,4.8727,4.8745,4.8739,4.8748,4.8779,4.8766,4.8643,4.8624,4.8607,4.8593,4.8781,4.8781,4.8896,4.8897,4.8898]}]]